Location: Allentsteig
(48.6833°N, 15.3167°E)
Time: 17:19:42
(UTC+00:00)

ERS-1 Rocket - Pass Details

Date: 18 September 2020
Orbit: 753 x 757 km, 98.5° (Epoch: 30 October)

Event Time Altitude Azimuth Distance (km) Brightness Sun altitude
Exits shadow 20:57:22 36° 319° (NW) 1,182 4.3 -34.0°
Drops below altitude 10° 21:00:31 10° 338° (NNW) 2,295 6.2 -34.3°
Sets 21:02:52 0° 343° (NNW) 3,226 7.2 -34.5°
